Weather History for KSBY - November, 2011

Change the Weather History Date:

Tuesday, November 29, 2011

  Actual Average Record
Temperature  
Mean Temperature 61 °F 44 °F  
Max Temperature 74 °F 54 °F 74 °F (2001)
Min Temperature 48 °F 34 °F 10 °F (1930)
Degree Days  
Heating Degree Days 4 21  
Month to date heating degree days 343 483  
Since 1 July heating degree days 568 796  
Cooling Degree Days 0 0  
Month to date cooling degree days 3 0  
Year to date cooling degree days 1719 1150  
Growing Degree Days 10 (Base 50)    
Moisture  
Dew Point 53 °F    
Average Humidity 80    
Maximum Humidity 96    
Minimum Humidity 64    
Precipitation  
Precipitation 0.59 in 0.13 in 1.21 in (1958)
Month to date precipitation 2.31 3.31  
Year to date precipitation 37.47 41.85  
Snow  
Snow 0.00 in 0.00 in 0.10 in (1929)
Month to date snowfall 0.0 0.2  
Since 1 July snowfall 0.0 0.2  
Snow Depth 0.00 in    
Sea Level Pressure  
Sea Level Pressure 29.82 in    
Wind  
Wind Speed 10 mph (South)    
Max Wind Speed 24 mph    
Max Gust Speed 35 mph    
Visibility 8 miles    
Events Rain    
T = Trace of Precipitation, MM = Missing Value Source: NWS Daily Summary

Daily Weather History Graph

Daily Weather History Graph

Search for Another Location

Airport or City:

Trip Planner

Search our weather history database for the weather conditions in past years. The results will help you decide how hot, cold, wet, or windy it might be!

Date:

Astronomy

Nov. 29, 2011 Rise Set
Actual Time 6:57 AM EST 4:42 PM EST
Civil Twilight 6:28 AM EST 5:11 PM EST
Nautical Twilight 5:56 AM EST 5:44 PM EST
Astronomical Twilight 5:24 AM EST 6:15 PM EST
Moon 10:44 AM EST (11/29) 9:31 PM EST (11/29)
Length of Visible Light 10h 42m
Length of Day
9h 44m
Waxing Crescent, 24% of the Moon is Illuminated
Nov 29
Waxing Crescent
Dec 2
First Quarter
Dec 10
Full
Dec 17
Last Quarter
Dec 24
New

Hourly Weather History & Observations

Time (EST) Temp. Dew Point Humidity Pressure Visibility Wind Dir Wind Speed Gust Speed Precip Events Conditions
12:54 AM 63.0 °F 60.1 °F 90% 30.00 in 10.0 mi East 6.9 mph - 0.01 in   Overcast
1:54 AM 64.0 °F 61.0 °F 90% 29.98 in 10.0 mi ESE 9.2 mph - 0.00 in   Overcast
2:54 AM 64.9 °F 61.0 °F 87% 29.97 in 10.0 mi ESE 10.4 mph - 0.00 in   Overcast
3:54 AM 64.0 °F 60.1 °F 87% 29.95 in 10.0 mi ESE 5.8 mph - N/A   Overcast
4:54 AM 64.0 °F 59.0 °F 84% 29.93 in 10.0 mi SE 6.9 mph - N/A   Partly Cloudy
5:54 AM 63.0 °F 59.0 °F 87% 29.91 in 10.0 mi ESE 8.1 mph - N/A   Mostly Cloudy
6:54 AM 64.0 °F 59.0 °F 84% 29.90 in 10.0 mi ESE 9.2 mph - N/A   Mostly Cloudy
7:54 AM 64.0 °F 61.0 °F 90% 29.89 in 10.0 mi ESE 11.5 mph - 0.03 in   Overcast
8:54 AM 66.0 °F 62.1 °F 87% 29.88 in 10.0 mi SE 9.2 mph 19.6 mph N/A   Mostly Cloudy
9:05 AM 66.2 °F 62.6 °F 88% 29.87 in 10.0 mi SE 10.4 mph 26.5 mph N/A   Mostly Cloudy
9:17 AM 66.2 °F 62.6 °F 88% 29.87 in 10.0 mi SE 11.5 mph - N/A   Mostly Cloudy
9:54 AM 70.0 °F 61.0 °F 73% 29.87 in 10.0 mi SE 13.8 mph 25.3 mph N/A   Mostly Cloudy
10:54 AM 73.0 °F 61.0 °F 66% 29.83 in 10.0 mi SSE 17.3 mph 25.3 mph N/A   Mostly Cloudy
11:30 AM 66.2 °F 60.8 °F 83% 29.82 in 6.0 mi SW 19.6 mph 34.5 mph 0.01 in Rain Light Rain
11:54 AM 61.0 °F 55.9 °F 83% 29.84 in 10.0 mi SW 17.3 mph 25.3 mph 0.01 in   Overcast
12:25 PM 57.2 °F 55.4 °F 94% 29.82 in 4.0 mi WSW 15.0 mph 25.3 mph 0.00 in Rain Light Rain
12:54 PM 55.9 °F 52.0 °F 87% 29.83 in 4.0 mi WSW 15.0 mph 20.7 mph 0.01 in Rain Light Rain
1:16 PM 55.4 °F 51.8 °F 88% 29.82 in 2.5 mi WSW 11.5 mph - 0.00 in Rain Light Rain
1:54 PM 54.0 °F 51.1 °F 90% 29.81 in 2.5 mi WSW 9.2 mph - 0.02 in Rain Light Rain
2:01 PM 53.6 °F 51.8 °F 94% 29.80 in 2.0 mi West 9.2 mph - 0.01 in Rain Light Rain
2:54 PM 53.1 °F 51.1 °F 93% 29.80 in 1.8 mi WSW 6.9 mph - 0.10 in Rain Rain
3:34 PM 53.6 °F 51.8 °F 94% 29.80 in 2.0 mi South 3.5 mph - 0.07 in Rain Light Rain
3:54 PM 52.0 °F 50.0 °F 93% 29.79 in 3.0 mi SW 5.8 mph - 0.12 in Rain Light Rain
4:01 PM 51.8 °F 50.0 °F 94% 29.78 in 3.0 mi South 6.9 mph - 0.02 in Rain Light Rain
4:54 PM 51.1 °F 48.0 °F 89% 29.82 in 3.0 mi South 12.7 mph 16.1 mph 0.12 in Rain Light Rain
5:01 PM 51.8 °F 48.2 °F 88% 29.80 in 8.0 mi South 8.1 mph - 0.01 in Rain Light Rain
5:54 PM 50.0 °F 46.9 °F 89% 29.80 in 8.0 mi SSE 8.1 mph - 0.11 in Rain Light Rain
6:54 PM 51.1 °F 48.0 °F 89% 29.76 in 9.0 mi SSE 8.1 mph - 0.05 in Rain Light Rain
7:23 PM 51.8 °F 48.2 °F 88% 29.74 in 10.0 mi South 5.8 mph - 0.02 in Rain Light Rain
7:54 PM 51.1 °F 48.9 °F 92% 29.75 in 10.0 mi South 6.9 mph - 0.02 in Rain Light Rain
8:10 PM 51.8 °F 48.2 °F 88% 29.74 in 10.0 mi South 6.9 mph - N/A   Overcast
8:19 PM 51.8 °F 48.2 °F 88% 29.74 in 10.0 mi South 8.1 mph - N/A   Overcast
8:52 PM 51.8 °F 46.4 °F 82% 29.75 in 10.0 mi SSW 12.7 mph 24.2 mph N/A   Overcast
8:54 PM 51.1 °F 46.9 °F 86% 29.76 in 10.0 mi SSW 12.7 mph 23.0 mph N/A   Overcast
9:05 PM 51.8 °F 46.4 °F 82% 29.75 in 10.0 mi SSW 12.7 mph - N/A   Overcast
9:16 PM 51.8 °F 46.4 °F 82% 29.75 in 10.0 mi SSW 11.5 mph 20.7 mph N/A   Overcast
9:44 PM 50.0 °F 46.4 °F 87% 29.74 in 10.0 mi South 6.9 mph - N/A   Overcast
9:54 PM 50.0 °F 46.0 °F 86% 29.75 in 10.0 mi South 5.8 mph - N/A   Overcast
10:54 PM 48.9 °F 45.0 °F 86% 29.75 in 10.0 mi SSW 9.2 mph - N/A   Clear
11:54 PM 48.9 °F 45.0 °F 86% 29.75 in 10.0 mi South 6.9 mph - N/A   Mostly Cloudy